Flag for Germany Weather past 2 weeks in Ganderkesee, Lower Saxony, Germany

Now
39 °F

Passing clouds.


Feels Like: 32 °F
Forecast: 35 / 41 °F
Wind: 10 mph from West

Location: Bremen Airport

Current Time: Jan 28, 2015 at 12:28:30 AM

Latest Report: Jan 27, 2015 at 11:50 PM


Visibility: N/A

Pressure: 30.07 "Hg

Humidity: 100%

Dew point: 39 °F

Location of GanderkeseeLocation

Historic Weather in Ganderkesee — Graph

°F

Ganderkesee temperature yesterday

Maximum temperature yesterday: 43 °F (at 1:20 PM)
Minimum temperature yesterday: 34 °F (at 6:20 PM)
Average temperature yesterday: 38 °F

Past Weeks' High & Low Weather Summary

 TemperatureHumidityPressure
High50 °F (Jan 13, 8:20 AM)100% (Jan 14, 5:20 PM)30.33 "Hg (Jan 14, 5:20 PM)
Low21 °F (Jan 21, 7:20 AM)70% (Jan 17, 12:50 PM)29.36 "Hg (Jan 15, 2:20 PM)
Average36 °F91%29.92 "Hg
* Reported Jan 12 11:20 PM — Jan 27 11:20 PM, Ganderkesee, Weather by CustomWeather, © 2014

Note: Actual official high and low records may vary slightly from our data, if they occured in-between our weather recording intervals... More about our weather records

Advertising

Ganderkesee weather history for previous 24 hours

 ConditionsComfort  
Time TempWeatherWind HumidityBarometerVisibility
11:20 PM
Jan 27
37 °FPassing clouds.10 mph100%30.07 "HgN/A
10:50 PM37 °FPassing clouds.12 mph100%30.07 "HgN/A
10:20 PM34 °FPassing clouds.8 mph100%30.07 "HgN/A
9:50 PM36 °FPassing clouds.6 mph93%30.09 "HgN/A
9:20 PM34 °FPassing clouds.5 mph100%30.09 "HgN/A
8:50 PM36 °FPassing clouds.5 mph93%30.09 "HgN/A
8:20 PM34 °FPassing clouds.6 mph100%30.09 "HgN/A
7:50 PM36 °FPassing clouds.3 mph93%30.09 "HgN/A
7:20 PM36 °FPassing clouds.3 mph93%30.09 "HgN/A
6:50 PM34 °FPassing clouds.5 mph100%30.09 "HgN/A
6:20 PM34 °FPassing clouds.7 mph100%30.09 "HgN/A
5:50 PM36 °FPassing clouds.8 mph93%30.09 "HgN/A
5:20 PM41 °FSprinkles. Passing clouds.6 mph87%30.09 "HgN/A
4:50 PM39 °FScattered clouds.6 mph87%30.07 "HgN/A
4:20 PM41 °FScattered clouds.9 mph81%30.07 "HgN/A
3:50 PM41 °FRain showers. Partly sunny.14 mph87%30.07 "HgN/A
3:20 PM43 °FPartly sunny.10 mph87%30.07 "HgN/A
2:50 PM41 °FScattered clouds.10 mph87%30.07 "HgN/A
2:20 PM41 °FSprinkles. Broken clouds.14 mph87%30.07 "HgN/A
1:50 PM43 °FPartly sunny.12 mph87%30.07 "HgN/A
1:20 PM43 °FBroken clouds.13 mph81%30.07 "HgN/A
12:50 PM41 °FBroken clouds.14 mph81%30.07 "HgN/A
12:20 PM41 °FBroken clouds.12 mph87%30.07 "HgN/A
11:50 AM39 °FBroken clouds.13 mph87%30.07 "HgN/A
11:20 AM41 °FPartly sunny.13 mph87%30.07 "HgN/A
10:50 AM39 °FPartly sunny.10 mph93%30.07 "HgN/A
10:20 AM39 °FBroken clouds.13 mph87%30.07 "HgN/A
9:50 AM37 °FScattered clouds.12 mph93%30.07 "HgN/A
9:20 AM37 °FScattered clouds.10 mph87%30.07 "HgN/A
8:50 AM37 °FScattered clouds.12 mph87%30.04 "HgN/A
8:20 AM37 °FScattered clouds.10 mph87%30.04 "HgN/A
7:50 AM37 °FPassing clouds.10 mph87%30.04 "HgN/A
7:20 AM36 °FPassing clouds.12 mph93%30.04 "HgN/A
6:50 AM36 °FPassing clouds.12 mph93%30.01 "HgN/A
6:20 AM36 °FPassing clouds.10 mph93%30.01 "HgN/A
5:50 AM36 °FPassing clouds.13 mph93%30.01 "HgN/A
5:20 AM36 °FPassing clouds.13 mph93%30.01 "HgN/A
4:50 AM37 °FSprinkles. Partly cloudy.12 mph93%30.01 "HgN/A
4:20 AM37 °FPassing clouds.12 mph93%30.01 "HgN/A
3:50 AM36 °FPassing clouds.10 mph93%30.01 "HgN/A
3:20 AM37 °FPassing clouds.12 mph93%30.01 "HgN/A
2:50 AM37 °FPassing clouds.12 mph87%30.01 "HgN/A
2:20 AM37 °FPassing clouds.15 mph93%29.98 "HgN/A
1:50 AM37 °FPassing clouds.14 mph93%29.98 "HgN/A
1:20 AM37 °FPartly cloudy.13 mph93%29.98 "HgN/A
12:50 AM39 °FPassing clouds.13 mph87%29.98 "HgN/A
12:20 AM39 °FPartly cloudy.14 mph87%29.98 "HgN/A
Weather by CustomWeather, © 2014

See weather overviewHow to use our weather pages